Vertical_Velocity
-2 -2 -2 -3 -4 -6 -2 2 10 -4 6 5 -9 -12 -6 -11 8 1 2 -3 -1 -3 -14 -3 -5 -1 -3 1 -4 -3 -2 -6 3 9 0 1 3 -4 -5 -13 -1 -0 0 -0
-1 -1 -2 -4 -3 -6 -3 -5 1 2 -1 2 4 6 -4 1 -4 4 -2 1 1 -3 -2 -2 -0 -3 -1 -0 1 0 1 2 -0 -2 -0 -1 -1 -8 -10 -3 -1 -1 1 -3
-1 2 -5 -3 -4 -2 -3 -5 -8 -0 3 -2 2 2 34 1 5 -6 -2 -6 -5 -3 -0 -6 -4 -2 -2 -5 -3 2 1 -4 -5 -3 -6 -0 3 5 3 5 8 8 -1 -1
-2 1 -1 -0 -2 -2 -4 -2 0 -6 -4 -5 2 -5 -5 -5 -5 8 -4 -1 -7 -8 -7 -4 -2 -2 -3 1 -1 -3 -2 -1 -3 -2 1 -1 -2 -2 -1 -3 -2 0 -5 -1
12 -1 -0 -0 1 2 -7 -2 1 -1 -5 -5 12 -4 24 5 -1 -13 6 -4 -2 0 -4 -0 3 4 2 -1 -2 -0 2 4 3 -1 -1 5 5 3 -2 -3 -0 3 -2 -2
-1 -2 -6 4 -2 -1 -2 -1 1 -3 -7 -11 -7 1 9 5 -3 2 -5 -3 -1 -4 -0 -8 -5 -2 -0 -1 -2 -2 -3 -2 -2 -1 -6 -2 -2 -4 1 8 -4 1 5 -2
5 -4 -1 2 -1 -0 -3 -3 -2 -3 -7 -9 5 7 16 2 -12 8 -0 -1 -6 2 2 1 -2 -0 -7 -4 -3 -3 -4 -3 -1 3 -4 -5 10 8 -8 0 14 4 20 11
4 -7 -5 7 -1 3 2 1 4 -4 -9 2 10 -10 5 -14 -9 -2 6 5 -11 -9 -2 4 -4 -13 -0 -2 0 -1 -2 -3 -2 -6 3 4 -1 2 -5 -11 8 0 -4 -6
-3 -3 -1 1 5 1 1 -9 15 -6 15 -1 1 5 -7 5 1 -1 -7 -5 3 -0 -8 -15 12 9 -16 -5 -5 -1 -3 -2 -2 -2 1 0 -0 2 -2 0 2 -5 -2 -0
4 -3 -9 4 -4 0 -2 1 -2 -4 4 4 4 0 28 6 10 -2 4 -6 -4 0 3 -8 4 23 17 -23 -9 -0 -3 9 -5 -2 -1 -0 1 1 3 0 -1 -2 3 0
4 1 1 2 -0 3 4 -3 -9 7 3 -2 -1 1 -3 -13 2 12 -7 -4 -7 -2 -4 -5 -4 -6 -21 -36 68 0 1 -5 4 3 -2 -6 -3 -5 -3 -1 0 0 0 0
12 5 -5 -1 3 2 3 3 -1 -8 -6 -2 -3 -3 3 14 -2 -24 0 5 -7 -3 -8 -5 -2 -3 -2 -0 -8 -14 -2 -3 -0 -4 -1 2 23 7 -1 -2 -0 4 -2 2
12 -12 -4 -7 6 -4 -5 5 3 -3 4 -7 7 5 1 -1 4 -1 2 2 -11 4 -6 -5 -3 -2 -1 1 4 -10 -5 -9 23 4 22 16 2 -3 -5 1 -1 2 -3 -2
21 2 -3 0 6 0 -6 -3 -3 -3 -7 3 -9 2 3 -3 -10 -2 -3 -9 -4 -7 -0 -4 -5 -0 -2 1 3 -3 -1 -2 5 -5 25 3 8 -3 4 1 3 -0 3 2
-1 -11 3 7 2 -3 -0 2 4 -5 8 -0 -6 8 -3 1 -5 -1 23 16 -7 -0 -2 -6 -5 -3 1 -2 -2 -0 -3 6 -12 9 -0 3 8 12 1 1 -1 -1 -0 2
3 -3 5 -6 2 -0 -9 24 3 -7 -3 -1 -8 -2 -1 0 -5 10 13 -5 -7 9 -5 1 2 -16 5 1 -4 1 5 -6 -5 -4 5 4 4 2 9 5 3 2 2 -3
-2 1 2 -1 6 5 -45 5 -0 3 6 5 4 4 -0 0 9 0 1 -6 -6 -1 6 1 -0 -13 2 0 -0 -1 2 -0 -2 -2 -0 -4 -3 0 0 1 0 -0 3 -0
1 0 1 9 5 -63 46 -8 7 -1 -11 -3 -8 2 2 -2 -0 -0 -4 -3 -6 -1 0 -1 -0 -1 -4 -0 1 1 1 1 -0 -1 -0 -1 1 -1 -1 -0 -2 -1 -3 -4
-3 -7 -3 -11 -13 29 -9 1 2 -5 3 0 -4 2 -1 0 -1 -11 -2 8 -4 2 -1 -1 -0 -3 -2 -1 -1 -0 -0 0 -0 -0 -1 -1 -0 -0 1 -1 0 -1 -1 -1
16 -1 -7 5 -12 -23 23 11 18 -0 -18 6 2 -2 2 2 -8 4 -5 9 3 -1 -2 -0 -1 -3 -2 -1 -2 -2 -3 -2 -1 -1 -0 -1 -0 -1 -1 0 -0 1 -0 0
21 7 -6 9 -5 -4 7 17 10 -28 6 3 2 -0 5 1 -11 -1 7 -4 0 0 -3 -2 -1 -2 -1 -0 -1 -2 -2 -2 -2 -1 -2 -2 1 1 -1 -2 1 1 -0 -0
10 14 6 5 -17 -20 20 -11 -12 9 17 12 -4 4 -2 -4 -1 1 -0 -2 0 -0 -1 -1 -1 -2 -1 -1 1 2 -1 -1 0 -0 1 2 -1 -1 1 2 -0 1 1 1
-13 5 8 5 -6 -1 1 -23 -7 7 11 6 2 -0 1 -8 0 1 -1 -1 -1 0 -1 -1 1 1 -0 -1 -1 1 0 -0 0 -0 -2 -2 -2 -1 -2 1 -3 -0 1 -2
-0 -1 -7 -6 12 2 37 5 -10 10 0 4 6 7 -2 -9 -1 4 2 -0 -2 -0 -1 -1 -2 -1 1 0 0 3 1 0 -1 1 1 1 -2 -1 -3 3 -3 4 -2 -0
13 -12 14 0 2 4 4 49 26 -21 -3 -1 0 2 -2 -4 7 1 1 2 -1 -1 -2 -1 -1 -3 -2 2 5 3 1 2 2 1 1 -0 -1 -1 -0 -2 1 -1 0 -0
-5 6 -8 0 27 -7 -4 -5 5 6 -0 1 -4 3 -1 0 -1 -1 0 1 -2 -1 -1 -1 -1 0 -6 -2 1 1 2 2 3 1 3 -1 -1 -1 4 -6 2 4 -0 0
Height
5754 5755 5754 5753 5752 5752 5753 5754 5754 5753 5753 5753 5749 5742 5744 5743 5747 5745 5744 5742 5742 5741 5740 5741 5741 5742 5743 5743 5743 5743 5742 5744 5748 5749 5750 5754 5758 5758 5762 5758 5766 5769 5770 5772
5750 5752 5750 5749 5749 5750 5750 5751 5753 5755 5750 5751 5752 5753 5743 5745 5747 5747 5745 5743 5741 5742 5742 5742 5743 5743 5744 5746 5747 5748 5749 5751 5751 5750 5752 5754 5756 5757 5760 5762 5765 5766 5767 5769
5744 5748 5746 5746 5746 5746 5745 5747 5751 5750 5748 5749 5751 5751 5753 5746 5746 5744 5744 5742 5743 5743 5744 5744 5744 5745 5745 5745 5747 5748 5750 5751 5752 5754 5755 5756 5757 5758 5760 5761 5763 5763 5766 5766
5739 5742 5743 5743 5743 5744 5743 5745 5745 5745 5746 5749 5748 5750 5749 5744 5745 5747 5744 5744 5743 5742 5744 5744 5744 5744 5745 5746 5747 5748 5749 5751 5752 5754 5755 5757 5758 5760 5762 5764 5762 5762 5763 5763
5737 5736 5739 5739 5740 5741 5740 5739 5742 5742 5743 5745 5747 5749 5751 5747 5744 5740 5744 5743 5744 5743 5741 5744 5745 5745 5745 5746 5747 5748 5749 5751 5751 5752 5753 5753 5756 5757 5759 5760 5761 5760 5760 5761
5729 5730 5733 5735 5735 5737 5739 5738 5738 5739 5741 5741 5744 5746 5743 5744 5743 5742 5739 5742 5742 5742 5743 5743 5744 5745 5746 5746 5747 5748 5749 5750 5751 5752 5752 5754 5754 5755 5756 5753 5753 5755 5756 5756
5723 5724 5728 5730 5731 5734 5735 5735 5737 5738 5738 5739 5741 5743 5744 5741 5741 5740 5741 5740 5739 5741 5741 5740 5739 5742 5743 5745 5746 5747 5747 5749 5750 5751 5749 5749 5753 5749 5747 5744 5745 5746 5749 5749
5716 5717 5722 5726 5727 5731 5732 5734 5733 5732 5733 5735 5734 5739 5742 5738 5738 5740 5741 5740 5737 5736 5737 5739 5738 5737 5739 5740 5742 5743 5744 5744 5745 5745 5747 5748 5745 5746 5744 5743 5742 5741 5743 5746
5709 5711 5718 5719 5722 5725 5727 5728 5732 5728 5729 5731 5731 5736 5739 5739 5737 5736 5736 5737 5738 5736 5732 5733 5733 5734 5734 5736 5737 5739 5739 5740 5740 5740 5741 5742 5742 5742 5740 5741 5740 5739 5741 5740
5703 5706 5710 5715 5718 5719 5720 5726 5727 5724 5725 5727 5730 5733 5735 5732 5731 5731 5732 5732 5733 5734 5734 5732 5718 5728 5726 5731 5732 5735 5735 5734 5734 5735 5736 5736 5738 5738 5737 5737 5735 5734 5735 5732
5695 5700 5706 5707 5707 5713 5715 5717 5719 5722 5723 5722 5724 5728 5723 5724 5727 5727 5727 5726 5727 5728 5728 5729 5730 5730 5729 5725 5723 5728 5730 5730 5730 5731 5730 5729 5729 5730 5730 5730 5730 5729 5727 5725
5686 5692 5696 5699 5703 5708 5709 5712 5715 5716 5718 5719 5719 5722 5724 5721 5721 5722 5724 5723 5721 5721 5722 5723 5725 5726 5726 5727 5725 5723 5724 5723 5724 5726 5724 5722 5720 5722 5723 5722 5721 5721 5719 5717
5678 5680 5686 5691 5695 5698 5700 5704 5707 5710 5712 5711 5712 5717 5717 5719 5720 5719 5720 5719 5717 5718 5717 5717 5718 5719 5720 5722 5722 5719 5719 5717 5715 5716 5716 5714 5715 5716 5715 5714 5714 5713 5710 5708
5670 5670 5676 5680 5687 5693 5695 5699 5701 5703 5702 5704 5704 5708 5711 5713 5712 5713 5712 5711 5711 5712 5712 5712 5712 5713 5713 5715 5716 5715 5715 5714 5708 5709 5708 5709 5707 5707 5707 5707 5706 5703 5700 5698
5657 5658 5667 5674 5681 5687 5690 5693 5695 5695 5697 5697 5700 5700 5705 5706 5706 5708 5702 5704 5705 5706 5706 5705 5706 5705 5707 5707 5708 5707 5706 5706 5702 5700 5699 5702 5702 5700 5698 5698 5696 5694 5691 5688
5648 5652 5659 5662 5670 5676 5679 5685 5687 5689 5692 5692 5694 5695 5698 5700 5699 5701 5700 5698 5700 5702 5699 5700 5699 5696 5700 5700 5698 5699 5699 5697 5696 5693 5693 5693 5692 5690 5688 5687 5686 5684 5681 5678
5638 5643 5649 5652 5662 5667 5665 5672 5678 5682 5684 5686 5686 5690 5691 5693 5693 5691 5690 5690 5692 5693 5694 5693 5692 5689 5692 5691 5691 5690 5690 5690 5689 5688 5687 5686 5686 5685 5683 5681 5678 5675 5673 5669
5628 5634 5640 5644 5652 5650 5659 5667 5671 5671 5674 5676 5678 5682 5683 5684 5686 5687 5685 5685 5685 5685 5685 5684 5683 5682 5681 5682 5682 5682 5681 5681 5680 5680 5679 5677 5676 5675 5673 5670 5668 5665 5661 5657
5616 5622 5627 5632 5639 5648 5651 5659 5662 5663 5668 5670 5671 5673 5675 5677 5678 5675 5677 5679 5678 5678 5676 5675 5674 5672 5672 5672 5673 5673 5672 5672 5671 5671 5669 5668 5667 5666 5664 5661 5658 5654 5650 5645
5610 5614 5622 5628 5631 5633 5644 5654 5658 5658 5655 5664 5664 5665 5667 5670 5667 5669 5669 5671 5671 5669 5667 5666 5665 5664 5663 5663 5663 5663 5663 5662 5662 5661 5660 5659 5658 5656 5654 5651 5647 5642 5637 5632
5603 5606 5612 5619 5623 5630 5639 5647 5650 5649 5657 5656 5656 5658 5661 5660 5659 5660 5664 5662 5662 5661 5660 5658 5656 5655 5654 5654 5654 5654 5654 5654 5653 5652 5651 5650 5648 5645 5642 5639 5634 5630 5624 5618
5594 5600 5605 5613 5618 5623 5634 5635 5641 5647 5653 5650 5649 5651 5650 5651 5651 5654 5655 5655 5653 5652 5650 5649 5647 5646 5646 5645 5645 5646 5646 5645 5644 5643 5641 5639 5637 5634 5631 5626 5621 5616 5609 5604
5587 5595 5601 5606 5609 5615 5622 5627 5634 5639 5641 5641 5641 5641 5642 5641 5643 5646 5646 5646 5644 5643 5642 5640 5638 5638 5637 5637 5636 5637 5636 5636 5635 5633 5630 5628 5625 5621 5617 5612 5606 5600 5594 5588
5584 5584 5589 5595 5606 5611 5615 5614 5623 5625 5627 5631 5630 5629 5632 5630 5632 5636 5636 5635 5635 5634 5633 5632 5630 5629 5628 5628 5628 5628 5626 5625 5623 5621 5618 5615 5611 5607 5602 5597 5590 5584 5579 5573
5581 5579 5585 5590 5595 5600 5602 5604 5608 5612 5616 5617 5621 5620 5622 5622 5624 5625 5625 5626 5625 5624 5623 5623 5622 5620 5618 5617 5617 5615 5614 5612 5610 5608 5605 5601 5596 5591 5586 5581 5575 5569 5563 5557
5573 5576 5576 5580 5586 5583 5592 5597 5603 5605 5608 5611 5611 5613 5614 5614 5614 5614 5615 5615 5614 5613 5613 5613 5611 5611 5609 5607 5605 5603 5602 5599 5597 5594 5590 5585 5581 5575 5571 5563 5559 5553 5546 5539